sat.trackr.live / text

‹ back to catalog

2025-155N

NORAD 64888 · 2025-155N

PAYLOAD ACTIVE UNKNOWN

§ Identity

Operator
Country
TBD
Launch date
2025-07-25
Launch site
VOSTO
Launch vehicle
Mass (kg)
RCS (m²)

External: N2YO · Heavens-Above · Gunter

§ Orbital elements

Epoch: 2026-09-21T21:14:22.402464Z

Period
93.03 min
Inclination
97.4560°
Eccentricity
0.0007169
Mean motion
15.47874626 rev/d
Perigee alt
418.1 km
Apogee alt
427.8 km
Semi-major
6,801.1 km
B*
6.0228e-4
RAAN
238.3240°
Arg perigee
142.7982°
Mean anomaly
217.3766°
Rev number
9,586

§ Raw data

2025-155N1 64888U 25155N   26264.88498151  .00031355  00000+0  60228-3 0  99932 64888  97.4560 238.3240 0007169 142.7982 217.3766 15.47874626 95865

JSON: /api/v1/satellites/64888 · /tle

For live sub-satellite position, see the globe view (requires WebGL).

§ Visibility from observer

Set your observer location to see the next 7 days of passes ≥ 10°. The values pass through the URL so the page stays shareable.

No JS? Fill the form by hand. The geolocation button needs JavaScript.